Location: Caixon
(43.4106°N, 0.0273°E)
Time: 03:12:20
(UTC+00:00)

ATLAS 2AS CENTAUR R/B - Pass Details

Date: 16 October 2021
Orbit: 958 x 1254 km, 63.7° (Epoch: 28 November)

Event Time Altitude Azimuth Distance (km) Brightness Sun altitude
Exits shadow 04:09:54 19° 315° (NW) 2,588 4.4 -23.4°
Maximum altitude 04:12:04 21° 337° (NNW) 2,447 4.4 -23.0°
Drops below altitude 10° 04:17:32 10° 24° (NNE) 3,116 5.5 -22.1°
Sets 04:21:05 0° 40° (NE) 4,029 6.5 -21.4°
